Weather History for Charlevoix, MI

Change the Weather History Date:

Sunday, March 18, 2012

  Actual Average Record
Temperature  
Mean Temperature 66 °F -  
Max Temperature 77 °F 34 °F 77 °F (2012)
Min Temperature 54 °F 18 °F 6 °F (2005)
Growing Degree Days 16 (Base 50)    
Moisture  
Dew Point 52 °F    
Average Humidity 63    
Maximum Humidity 81    
Minimum Humidity 45    
Precipitation  
Precipitation 0.00 in - - ()
Sea Level Pressure  
Sea Level Pressure 30.02 in    
Wind  
Wind Speed 7 mph (South)    
Max Wind Speed 13 mph    
Max Gust Speed 17 mph    
Visibility 10 miles    
Events      
Averages and records for this station are not official NWS values.
T = Trace of Precipitation, MM = Missing Value Source: NWS Daily Summary

Daily Weather History Graph

Daily Weather History Graph

Search for Another Location

Airport:

Trip Planner

Search our weather history database for the weather conditions in past years. The results will help you decide how hot, cold, wet, or windy it might be!

Date:

Astronomy

Mar. 18, 2012 Rise Set
Actual Time 7:47 AM EDT 7:51 PM EDT
Civil Twilight 7:17 AM EDT 8:21 PM EDT
Nautical Twilight 6:43 AM EDT 8:55 PM EDT
Astronomical Twilight 6:07 AM EDT 9:31 PM EDT
Moon 5:35 AM EDT (3/18) 4:08 PM EDT (3/18)
Length of Visible Light 13h 03m
Length of Day
12h 04m
Waning Crescent, 15% of the Moon is Illuminated
Mar 18
Waning Crescent
Mar 22
New
Mar 30
First Quarter
Apr 6
Full
Apr 13
Last Quarter

Hourly Weather History & Observations

Time (EDT) Temp. Dew Point Humidity Pressure Visibility Wind Dir Wind Speed Gust Speed Precip Events Conditions
12:15 AM 67.1 °F 49.1 °F 52% 30.01 in 10.0 mi South 6.9 mph - N/A   Clear
12:35 AM 65.5 °F 49.1 °F 55% 30.01 in 10.0 mi SSE 5.8 mph - N/A   Clear
12:54 AM 64.0 °F 48.7 °F 57% 30.01 in 10.0 mi SE 5.8 mph - N/A   Clear
1:15 AM 63.5 °F 49.1 °F 59% 30.01 in 10.0 mi SSE 5.8 mph - N/A   Clear
1:35 AM 63.0 °F 49.1 °F 61% 30.01 in 10.0 mi SSE 5.8 mph - N/A   Clear
1:54 AM 62.1 °F 49.1 °F 62% 30.01 in 10.0 mi SSE 5.8 mph - N/A   Clear
2:15 AM 62.2 °F 48.9 °F 62% 30.01 in 10.0 mi SSE 5.8 mph - N/A   Clear
2:34 AM 62.1 °F 49.1 °F 62% 30.02 in 10.0 mi SSE 5.8 mph - N/A   Clear
3:14 AM 64.0 °F 50.4 °F 61% 30.01 in 10.0 mi South 8.1 mph - N/A   Clear
3:35 AM 64.6 °F 50.7 °F 61% 30.01 in 10.0 mi South 8.1 mph - N/A   Clear
3:55 AM 64.4 °F 50.9 °F 62% 30.01 in 10.0 mi South 11.5 mph 17.3 mph N/A   Clear
4:14 AM 64.4 °F 50.9 °F 62% 30.01 in 10.0 mi South 9.2 mph - N/A   Clear
4:55 AM 62.6 °F 50.9 °F 66% 30.01 in 10.0 mi South 8.1 mph - N/A   Clear
5:14 AM 62.2 °F 51.1 °F 67% 30.01 in 10.0 mi South 6.9 mph - N/A   Clear
5:35 AM 61.5 °F 51.1 °F 69% 30.02 in 10.0 mi SSE 5.8 mph - N/A   Clear
5:55 AM 60.8 °F 51.3 °F 71% 30.02 in 10.0 mi SSE 6.9 mph - N/A   Clear
6:14 AM 60.4 °F 51.1 °F 71% 30.02 in 10.0 mi SSE 6.9 mph - N/A   Clear
6:35 AM 59.2 °F 50.5 °F 73% 30.02 in 10.0 mi SE 4.6 mph - N/A   Clear
6:54 AM 57.4 °F 49.8 °F 76% 30.02 in 10.0 mi ESE 3.5 mph - N/A   Clear
7:15 AM 56.5 °F 50.0 °F 79% 30.02 in 10.0 mi ESE 4.6 mph - N/A   Clear
7:35 AM 55.0 °F 49.5 °F 81% 30.03 in 10.0 mi ESE 5.8 mph - N/A   Clear
7:54 AM 55.4 °F 49.8 °F 81% 30.03 in 10.0 mi ESE 4.6 mph - N/A   Clear
8:14 AM 55.9 °F 50.2 °F 81% 30.03 in 10.0 mi SE 4.6 mph - N/A   Clear
8:34 AM 58.5 °F 51.6 °F 78% 30.03 in 10.0 mi SSE 6.9 mph - N/A   Clear
8:55 AM 60.1 °F 52.2 °F 75% 30.03 in 10.0 mi SSE 6.9 mph - N/A   Clear
9:14 AM 61.5 °F 52.5 °F 72% 30.03 in 10.0 mi SE 6.9 mph - N/A   Clear
9:34 AM 63.0 °F 53.1 °F 70% 30.04 in 10.0 mi SSE 6.9 mph - N/A   Clear
9:55 AM 65.1 °F 53.8 °F 67% 30.04 in 10.0 mi South 5.8 mph - N/A   Clear
10:14 AM 67.1 °F 54.5 °F 64% 30.04 in 10.0 mi South 5.8 mph - N/A   Clear
10:35 AM 68.2 °F 54.9 °F 62% 30.04 in 10.0 mi South 8.1 mph - N/A   Clear
10:55 AM 69.3 °F 55.4 °F 61% 30.04 in 10.0 mi South 8.1 mph - N/A   Clear
11:14 AM 70.3 °F 55.6 °F 59% 30.05 in 10.0 mi SSE 6.9 mph - N/A   Clear
11:35 AM 71.1 °F 55.9 °F 59% 30.05 in 10.0 mi South 10.4 mph - N/A   Clear
11:55 AM 72.3 °F 56.5 °F 57% 30.04 in 10.0 mi South 9.2 mph - N/A   Clear
12:14 PM 73.4 °F 57.2 °F 57% 30.04 in 10.0 mi South 8.1 mph - N/A   Clear
12:35 PM 74.7 °F 57.7 °F 55% 30.03 in 10.0 mi SSW 9.2 mph - N/A   Clear
12:55 PM 75.6 °F 57.9 °F 54% 30.03 in 10.0 mi South 9.2 mph - N/A   Clear
1:14 PM 75.9 °F 57.0 °F 52% 30.02 in 10.0 mi SW 10.4 mph 16.1 mph N/A   Clear
1:35 PM 76.5 °F 57.0 °F 51% 30.03 in 10.0 mi SW 8.1 mph - N/A   Clear
1:54 PM 77.0 °F 56.7 °F 49% 30.02 in 10.0 mi South 6.9 mph - N/A   Clear
2:14 PM 77.5 °F 54.5 °F 45% 30.02 in 10.0 mi South 6.9 mph - N/A   Clear
2:35 PM 72.7 °F 52.0 °F 48% 30.02 in 10.0 mi NNW 5.8 mph - N/A   Clear
3:15 PM 73.4 °F 52.7 °F 48% 30.01 in 10.0 mi West 12.7 mph - N/A   Clear
3:35 PM 70.3 °F 51.8 °F 52% 30.01 in 10.0 mi West 12.7 mph - N/A   Clear
3:54 PM 70.5 °F 51.4 °F 51% 30.01 in 10.0 mi West 10.4 mph - N/A   Clear
4:15 PM 69.4 °F 50.9 °F 52% 30.00 in 10.0 mi West 11.5 mph - N/A   Clear
4:54 PM 68.0 °F 50.2 °F 53% 30.00 in 10.0 mi West 10.4 mph - N/A   Clear
5:15 PM 67.3 °F 50.0 °F 54% 30.00 in 10.0 mi West 9.2 mph - N/A   Clear
5:35 PM 63.9 °F 50.2 °F 61% 30.00 in 10.0 mi WNW 10.4 mph - N/A   Clear
5:54 PM 61.5 °F 49.3 °F 64% 29.99 in 10.0 mi NNW 6.9 mph - N/A   Clear
6:15 PM 54.5 °F 46.6 °F 75% 29.99 in 10.0 mi NW 6.9 mph - N/A   Clear
6:35 PM 54.7 °F 46.9 °F 75% 29.98 in 10.0 mi WNW 3.5 mph - N/A   Clear
6:54 PM 56.3 °F 47.7 °F 73% 29.98 in 10.0 mi NW 3.5 mph - N/A   Clear
7:15 PM 57.2 °F 48.4 °F 72% 29.97 in 10.0 mi WNW 3.5 mph - N/A   Clear
7:34 PM 57.2 °F 49.1 °F 74% 29.98 in 10.0 mi West 4.6 mph - N/A   Clear
7:54 PM 57.2 °F 48.6 °F 73% 29.98 in 10.0 mi West 3.5 mph - N/A   Clear
8:15 PM 55.9 °F 48.4 °F 76% 29.98 in 10.0 mi Calm Calm - N/A   Clear
8:34 PM 55.6 °F 48.4 °F 77% 29.99 in 10.0 mi Calm Calm - N/A   Clear
9:15 PM 54.3 °F 48.2 °F 80% 29.99 in 10.0 mi Calm Calm - N/A   Clear
9:34 PM 53.8 °F 48.2 °F 81% 29.99 in 10.0 mi SE 5.8 mph - N/A   Clear
9:55 PM 55.6 °F 48.7 °F 78% 29.99 in 10.0 mi SE 4.6 mph - N/A   Clear
10:14 PM 55.8 °F 49.1 °F 78% 29.99 in 10.0 mi SE 5.8 mph - N/A   Clear
10:34 PM 57.4 °F 49.3 °F 74% 29.99 in 10.0 mi SE 6.9 mph - N/A   Clear
10:55 PM 57.6 °F 49.3 °F 74% 30.00 in 10.0 mi SE 5.8 mph - N/A   Clear
11:35 PM 56.8 °F 49.1 °F 75% 30.00 in 10.0 mi SE 6.9 mph - N/A   Clear
11:55 PM 57.2 °F 49.3 °F 75% 30.01 in 10.0 mi SSE 3.5 mph - N/A   Clear